Weather History for KAND - February, 2012

Change the Weather History Date:

Wednesday, February 15, 2012

  Actual Average Record
Temperature  
Mean Temperature 47 °F -  
Max Temperature 64 °F 59 °F 76 °F (1989)
Min Temperature 30 °F 37 °F 18 °F (1960)
Degree Days  
Heating Degree Days 18    
Moisture  
Dew Point 34 °F    
Average Humidity 78    
Maximum Humidity 100    
Minimum Humidity 34    
Precipitation  
Precipitation 0.00 in - - ()
Sea Level Pressure  
Sea Level Pressure 30.17 in    
Wind  
Wind Speed 2 mph (East)    
Max Wind Speed 8 mph    
Max Gust Speed -    
Visibility 4 miles    
Events Fog    
Averages and records for this station are not official NWS values.
T = Trace of Precipitation, MM = Missing Value Source: NWS Daily Summary

Daily Weather History Graph

Daily Weather History Graph

Search for Another Location

Airport or City:

Trip Planner

Search our weather history database for the weather conditions in past years. The results will help you decide how hot, cold, wet, or windy it might be!

Date:

Astronomy

Feb. 15, 2012 Rise Set
Actual Time 7:16 AM EST 6:13 PM EST
Civil Twilight 6:50 AM EST 6:39 PM EST
Nautical Twilight 6:21 AM EST 7:09 PM EST
Astronomical Twilight 5:52 AM EST 7:38 PM EST
Moon 2:01 AM EST (2/15) 12:15 PM EST (2/15)
Length of Visible Light 11h 48m
Length of Day
10h 57m
Last Quarter, 39% of the Moon is Illuminated
Feb 15
Last Quarter
Feb 21
New
Feb 29
First Quarter
Mar 8
Full
Mar 14
Last Quarter

Hourly Weather History & Observations

Time (EST) Temp. Windchill Dew Point Humidity Pressure Visibility Wind Dir Wind Speed Gust Speed Precip Events Conditions
12:46 AM 33.8 °F 30.8 °F 32.0 °F 93% 30.12 in 2.0 mi South 3.5 mph - N/A   Clear
12:56 AM 36.0 °F - 34.0 °F 93% 30.12 in 3.0 mi Calm Calm - N/A   Clear
1:10 AM 33.8 °F - 33.8 °F 100% 30.12 in 2.5 mi Calm Calm - N/A   Partly Cloudy
1:15 AM 33.8 °F - 32.0 °F 93% 30.12 in 1.0 mi Calm Calm - N/A   Mist
1:18 AM 35.6 °F - 33.8 °F 93% 30.12 in 0.5 mi Calm Calm - N/A Fog Fog
1:27 AM 37.4 °F 33.8 °F 35.6 °F 93% 30.11 in 1.0 mi NW 4.6 mph - N/A   Mist
1:30 AM 37.4 °F 34.9 °F 35.6 °F 93% 30.11 in 2.0 mi NW 3.5 mph - N/A   Partly Cloudy
1:46 AM 33.8 °F 30.8 °F 32.0 °F 93% 30.11 in 0.8 mi SSE 3.5 mph - N/A   Mist
1:54 AM 33.8 °F - 32.0 °F 93% 30.11 in 0.5 mi Calm Calm - N/A Fog Fog
1:56 AM 33.8 °F - 30.2 °F 87% 30.11 in 0.5 mi Calm Calm - N/A Fog Fog
2:20 AM 33.8 °F - 33.8 °F 100% 30.11 in 1.0 mi Calm Calm - N/A   Clear
2:48 AM 32.0 °F - 30.2 °F 93% 30.11 in 2.0 mi Calm Calm - N/A   Partly Cloudy
2:56 AM 34.0 °F - 30.9 °F 89% 30.12 in 2.0 mi Calm Calm - N/A   Scattered Clouds
3:02 AM 30.2 °F 26.7 °F 30.2 °F 100% 30.12 in 1.8 mi South 3.5 mph - N/A   Mostly Cloudy
3:16 AM 32.0 °F - 30.2 °F 93% 30.12 in 0.8 mi Calm Calm - N/A   Mist
3:19 AM 32.0 °F - 30.2 °F 93% 30.12 in 0.2 mi Calm Calm - N/A Fog Fog
4:49 AM 32.0 °F 28.7 °F 30.2 °F 93% 30.14 in 0.2 mi NE 3.5 mph - N/A Fog Fog
4:56 AM 32.0 °F 28.7 °F 32.0 °F 100% 30.15 in 0.2 mi NE 3.5 mph - N/A Fog Fog
5:56 AM 33.1 °F - 33.1 °F 100% 30.17 in 0.2 mi Calm Calm - N/A Fog Fog
6:56 AM 32.0 °F 28.7 °F 30.2 °F 93% 30.18 in 0.2 mi NNW 3.5 mph - N/A Fog Fog
7:56 AM 30.9 °F - 30.0 °F 96% 30.21 in 0.2 mi Calm Calm - N/A Fog Light Freezing Fog
8:18 AM 30.2 °F - 30.2 °F 100% 30.22 in 0.2 mi Calm Calm - N/A Fog Light Freezing Fog
8:56 AM 34.0 °F - 33.1 °F 96% 30.24 in 0.5 mi Calm Calm - N/A Fog Fog
9:09 AM 35.6 °F 31.7 °F 35.6 °F 100% 30.23 in 1.0 mi NE 4.6 mph - N/A   Mostly Cloudy
9:28 AM 39.2 °F 37.0 °F 37.4 °F 93% 30.23 in 7.0 mi North 3.5 mph - N/A   Partly Cloudy
9:56 AM 43.0 °F - 37.9 °F 82% 30.25 in 10.0 mi Calm Calm - N/A   Clear
10:56 AM 51.1 °F - 39.0 °F 63% 30.27 in 10.0 mi NE 3.5 mph - N/A   Clear
11:56 AM 55.9 °F - 39.0 °F 53% 30.25 in 10.0 mi East 5.8 mph - N/A   Clear
12:56 PM 61.0 °F - 37.9 °F 42% 30.22 in 10.0 mi Variable 3.5 mph - N/A   Clear
1:56 PM 63.0 °F - 37.0 °F 38% 30.19 in 10.0 mi NE 3.5 mph - N/A   Clear
2:56 PM 64.9 °F - 36.0 °F 34% 30.17 in 10.0 mi East 8.1 mph - N/A   Clear
3:56 PM 64.4 °F - 35.6 °F 34% 30.17 in 10.0 mi SE 5.8 mph - N/A   Clear
4:56 PM 64.4 °F - 35.6 °F 34% 30.18 in 10.0 mi SE 5.8 mph - N/A   Clear
5:56 PM 61.0 °F - 37.0 °F 41% 30.18 in 10.0 mi SE 5.8 mph - N/A   Clear
6:56 PM 57.9 °F - 37.0 °F 46% 30.20 in 10.0 mi ESE 3.5 mph - N/A   Clear
7:56 PM 55.9 °F - 37.9 °F 51% 30.23 in 10.0 mi Calm Calm - N/A   Clear
8:56 PM 55.0 °F - 37.9 °F 53% 30.25 in 10.0 mi Calm Calm - N/A   Clear
9:56 PM 50.0 °F - 39.9 °F 68% 30.20 in 10.0 mi East 5.8 mph - N/A   Partly Cloudy
10:56 PM 53.1 °F - 39.0 °F 59% 30.20 in 10.0 mi ENE 3.5 mph - N/A   Clear
11:56 PM 52.0 °F - 39.0 °F 61% 30.20 in 10.0 mi ENE 5.8 mph - N/A   Clear